Weather in Bagrationovo

Russia / Kaliningrad Oblast     54°22′19″N   22°06′30″E
temp.,
°C
wind,
m/s
gust,
m/s
humid.,
%
clouds,
%
prec.,
mm/h
press.,
hPa
HPBL,
m
6 may, thu
thu623:00+5sw31089100 0.0 999219
02:00+5sw5138848 0.0 999406
05:00+5wsw71384100 0.0 9991195
08:00+5wsw81385100 0.3 10011172
11:00+7wsw81273100 0.3 10021412
14:00+7wsw7148198 0.9 10041528
17:00+10wsw713595 0.8 10032133
20:00+6sw41277100 1.5 1004370
7 may, fri
fri723:00+5sw498988 0.6 1005289
02:00+2ssw369563 0.7 1005113
05:00+2ssw3595100 0.0 100598
08:00+6s2380100 0.0 1004248
11:00+9sse3361100 0.0 10041174
14:00+9se2259100 0.2 10031198
17:00+6nw2387100 0.9 1003694
20:00+5nw4893100 4.1 1005542
8 may, sat
sat823:00+3wnw4997100 0.0 1007544
02:00+1wnw41097100 0.1 1009427
05:00−1w379872 0.0 1011175
08:00+4w588485 0.0 1013650
11:00+8w6107499 0.5 10131467
14:00+7wnw6108567 2.3 10141258
17:00+8wnw69825 1.4 10151198
20:00+4wnw25935 1.9 1017109
9 may, sun
sun923:00+2wsw22964 0.0 101924
02:00+1sw23935 0.0 102041
05:00+1ssw3696100 0.0 1020118
08:00+6s488173 0.0 1020359
11:00+12s685671 0.0 10191088
14:00+15s695184 0.0 10181612
17:00+14s51064100 0.0 10171069
20:00+12sse5127549 0.0 1017426
10 may, mon
mon1023:00+10sse51574100 0.0 1018411
02:00+9sse5148060 0.0 1019321
05:00+8sse5148643 0.0 1019320
08:00+12sse716715 0.0 1019538
11:00+17sse813575 0.0 1018883
14:00+19sse813575 0.0 10181093
17:00+19sse8146372 0.0 10161125
20:00+16sse514745 0.0 1018710